Theta_e
332 334 337 336 337 338 340 338 340 341 341 347 344 351 347 344 343 346 349 347 346 346 346 347 347 347 347 347 347 347 348 347 348 349 349 351 346 346 345 344 344 349 349 353
334 334 333 333 335 337 339 339 337 338 342 344 344 352 347 343 347 348 349 349 347 346 346 347 347 347 346 347 347 347 347 347 350 348 350 347 348 346 345 344 344 347 350 350
334 334 332 332 333 334 339 340 339 337 344 344 345 346 351 349 351 351 350 350 349 348 347 346 347 347 346 347 347 347 348 349 348 350 349 349 347 346 346 344 345 348 350 354
334 333 332 333 333 333 334 338 339 338 344 347 344 350 350 345 345 347 348 350 350 349 348 346 346 346 346 347 346 347 347 348 349 348 349 348 345 346 345 346 345 348 350 348
336 334 334 333 333 333 333 334 339 338 337 339 345 346 341 344 344 343 346 348 348 350 349 348 345 346 346 346 348 347 346 347 348 345 349 348 347 344 345 345 345 347 352 352
335 334 333 331 331 332 331 331 333 335 335 339 338 343 345 342 345 344 343 346 348 348 350 349 347 345 345 346 348 350 348 348 346 344 339 349 348 346 344 346 346 348 349 352
334 336 332 330 329 330 330 329 332 332 336 337 336 337 342 341 343 342 344 344 346 349 350 350 348 346 345 346 347 349 350 349 348 344 337 336 347 347 346 343 345 347 352 353
332 334 334 331 330 329 329 329 331 335 335 335 335 338 338 340 340 341 343 343 344 346 350 350 350 347 345 345 346 347 349 348 347 343 337 332 337 341 340 343 344 347 353 351
333 332 332 332 330 330 329 329 329 329 331 333 333 335 335 338 338 339 337 342 344 345 348 350 351 348 345 345 346 346 348 346 346 341 337 336 335 336 334 335 342 351 350 352
329 332 331 331 331 329 330 330 329 330 332 334 332 337 338 338 340 339 338 338 342 344 347 349 350 350 347 345 345 346 346 347 345 344 338 335 333 333 334 336 338 342 355 354
327 330 330 332 332 330 329 331 329 328 330 331 333 334 337 341 339 339 338 338 338 343 345 348 349 351 349 346 346 347 347 347 348 348 345 337 333 332 333 335 335 340 343 352
328 328 331 330 332 331 330 330 331 334 334 332 332 333 334 337 339 338 338 338 337 339 344 347 349 350 351 349 348 348 349 350 349 346 348 346 340 336 335 337 339 340 345 347
323 329 331 331 333 333 332 331 330 332 331 335 333 332 335 334 335 337 337 336 337 338 344 347 348 349 350 351 350 350 351 352 354 356 354 353 347 340 342 340 339 342 343 344
320 326 331 334 334 334 333 331 331 330 335 332 333 333 334 334 334 334 336 335 336 339 339 347 348 346 349 351 352 351 352 353 354 356 359 358 354 352 351 344 339 337 340 341
323 329 331 332 332 334 332 330 331 333 333 334 333 336 336 337 335 335 337 337 338 339 339 342 344 347 348 352 352 352 353 353 354 356 358 359 359 357 357 353 347 345 342 338
320 327 329 332 332 333 335 332 331 332 331 331 333 334 335 336 335 335 336 335 336 336 337 339 340 341 348 351 351 353 353 354 354 355 356 358 358 359 359 358 355 354 352 345
319 322 327 331 332 333 335 334 333 332 332 332 334 336 338 337 337 337 335 334 333 333 335 334 334 336 339 343 351 353 352 352 354 355 355 357 358 358 357 357 357 357 355 350
316 320 323 329 331 337 334 333 333 333 333 332 333 333 334 336 334 334 333 333 333 334 333 333 334 334 335 339 343 345 350 355 354 353 355 356 358 359 359 357 358 357 356 352
316 317 322 327 330 332 333 333 333 332 333 332 333 334 333 333 333 334 332 332 333 333 333 333 333 333 334 339 339 345 346 346 350 356 354 355 356 358 359 358 358 358 357 355
315 317 319 324 327 331 332 331 331 332 333 340 333 332 332 332 333 343 342 342 342 343 342 341 341 339 338 337 337 343 346 347 348 345 346 356 356 358 358 359 358 358 356 353
315 316 318 321 324 328 328 327 329 333 344 334 335 336 340 340 340 339 338 339 339 342 344 345 343 341 338 336 336 336 345 349 338 339 345 347 352 356 361 361 361 360 359 358
319 316 317 319 322 326 324 324 333 334 328 327 330 329 330 333 334 334 334 335 337 340 344 348 347 345 341 338 337 338 334 334 346 345 344 345 347 354 359 363 362 361 362 362
317 319 319 320 320 322 318 320 320 322 323 323 324 323 327 331 332 333 333 335 336 340 343 351 351 350 345 342 339 344 339 334 344 351 349 345 350 353 355 363 363 363 364 363
314 314 315 317 318 318 317 317 318 318 319 320 320 321 322 327 326 326 326 328 333 337 339 350 357 351 350 347 341 343 342 341 340 346 354 350 353 356 358 359 364 364 365 364
312 313 313 314 315 315 315 315 315 316 317 318 318 319 320 323 323 323 323 324 327 334 337 350 354 355 357 354 348 346 351 349 345 361 357 355 357 361 363 362 367 366 365 366
312 313 314 316 314 316 316 315 315 316 316 317 317 318 318 321 321 321 321 322 324 333 334 346 349 353 358 360 360 360 357 358 355 353 359 361 358 363 364 365 362 365 366 365
Wind_Speed
29 18 24 28 25 22 20 22 23 21 21 24 21 20 24 17 8 23 33 35 33 33 33 33 31 32 32 32 33 33 30 29 27 24 23 21 19 17 15 15 13 13 13 9
21 28 26 25 24 26 27 25 23 21 12 6 20 25 25 23 37 51 30 27 34 32 33 34 34 35 35 36 36 35 36 33 29 28 24 22 19 17 16 16 16 19 16 11
28 18 26 26 26 27 28 27 24 21 17 11 22 10 27 29 32 40 36 41 34 35 34 35 37 37 38 39 39 38 38 36 36 30 27 21 20 19 20 17 17 20 18 15
29 26 28 27 28 27 27 28 27 24 18 14 20 9 26 16 20 23 33 35 34 37 35 36 38 38 39 39 41 40 38 39 38 35 26 29 29 26 25 20 19 20 18 14
30 28 31 27 29 27 26 25 25 25 19 17 20 16 14 20 18 21 22 35 34 38 40 41 40 42 41 40 40 41 39 38 38 37 32 27 29 27 21 21 19 21 21 19
32 32 28 30 23 27 24 22 24 23 18 17 22 18 19 16 20 20 22 29 38 38 40 40 41 39 41 39 40 39 40 39 38 37 38 33 30 29 26 22 24 22 23 21
27 34 29 25 21 25 24 23 14 17 17 17 21 20 14 16 23 18 21 29 31 39 40 40 42 41 42 40 40 40 41 41 39 40 39 40 36 30 30 28 25 24 22 21
24 23 34 23 28 24 28 26 14 24 17 18 22 21 19 21 18 27 29 36 32 32 39 42 42 43 44 45 45 44 45 43 41 41 43 39 41 39 33 32 30 26 24 20
23 29 22 34 24 25 26 25 24 20 21 17 18 22 24 25 23 19 14 31 35 35 34 40 42 45 45 45 46 49 48 47 43 42 44 44 40 42 41 35 34 27 25 24
30 21 31 30 26 28 30 21 21 17 22 22 19 22 18 23 20 26 20 19 26 36 35 40 41 43 44 48 48 50 49 49 45 43 43 46 45 42 41 40 36 36 29 24
30 27 25 29 32 27 21 22 25 20 16 15 15 14 16 24 25 20 19 26 23 33 37 37 40 42 45 48 47 48 49 49 48 46 44 44 46 45 42 42 40 36 36 34
18 26 21 31 30 31 27 28 26 12 20 16 14 10 14 11 23 18 16 30 30 26 36 37 38 42 44 43 45 48 49 49 51 49 46 45 45 45 45 43 42 40 36 33
14 10 18 27 25 29 33 30 30 23 17 20 15 12 7 9 9 17 20 23 19 28 24 36 38 40 43 45 43 45 48 48 46 45 47 45 45 48 48 46 43 43 40 39
9 10 19 19 21 18 27 30 29 29 16 16 17 14 10 9 6 1 11 19 20 26 26 33 38 41 42 45 47 45 44 46 45 45 44 46 47 47 46 47 45 44 44 43
15 16 17 23 23 25 28 27 29 29 23 20 19 20 14 13 11 6 14 11 7 21 18 15 25 40 44 42 45 47 44 44 43 45 46 47 45 45 44 44 44 44 43 44
17 11 12 17 22 21 24 32 31 29 29 23 24 18 12 16 22 12 14 11 10 6 7 4 4 5 14 38 42 43 46 42 43 44 47 46 45 44 44 45 46 45 44 42
12 11 10 16 17 20 21 15 15 26 24 24 19 16 19 20 19 17 12 10 4 5 8 4 2 3 10 11 28 33 39 43 41 42 44 47 46 47 46 45 45 45 46 45
12 12 9 9 13 15 11 10 16 12 25 24 20 15 11 10 17 21 15 9 2 3 7 7 7 9 14 18 20 24 25 30 39 43 41 42 46 47 46 46 46 45 45 47
10 9 7 6 8 9 13 15 16 10 8 6 7 19 7 9 10 15 10 5 5 9 10 12 14 17 14 20 25 27 29 30 32 37 44 43 43 45 47 48 47 45 44 46
10 10 9 9 8 10 7 6 6 3 12 19 10 5 3 5 4 9 18 14 11 11 8 7 8 10 9 8 6 26 31 30 29 27 32 42 44 44 49 49 48 46 46 46
13 10 11 10 6 5 9 19 10 11 6 17 24 24 25 8 12 13 10 10 10 11 13 12 14 15 15 13 12 9 13 28 24 25 27 29 41 46 43 44 44 44 44 44
4 11 9 12 14 7 4 8 7 7 14 18 18 20 19 17 13 12 13 14 15 16 16 15 15 16 18 20 13 18 24 21 23 29 28 27 31 37 41 41 43 42 41 41
2 6 7 6 12 15 18 19 15 7 8 12 13 15 16 14 16 18 21 19 20 20 22 20 18 19 21 20 19 21 25 25 23 23 29 30 28 31 34 35 41 38 38 38
14 16 10 14 13 18 17 18 19 14 11 11 12 14 14 15 17 20 25 28 27 25 26 22 26 21 20 20 22 25 25 23 27 27 28 29 31 31 30 33 33 34 34 36
16 21 16 17 16 21 24 23 23 23 20 19 18 16 17 16 17 19 21 25 28 24 26 26 25 22 17 13 15 19 20 21 23 22 27 28 29 28 29 30 28 30 31 31
17 19 14 17 32 28 31 35 29 24 21 19 21 22 22 17 20 21 24 26 29 26 27 22 22 22 21 17 15 19 20 16 16 25 24 24 25 25 27 31 34 32 30 31
Wind_Direction
208 209 215 215 225 228 240 226 227 243 226 219 226 145 152 169 273 258 181 177 185 187 188 187 191 190 189 189 193 196 193 193 205 204 207 195 207 215 216 208 209 240 250 248
203 223 215 222 218 227 235 248 228 238 193 112 272 159 162 158 188 224 189 195 178 183 186 188 190 190 191 191 196 200 195 197 201 208 209 201 205 213 227 217 215 224 243 239
215 213 221 218 222 220 229 237 247 227 146 225 230 284 176 196 198 204 174 189 182 179 187 188 188 194 193 192 197 203 201 199 203 207 201 203 205 209 223 221 221 228 231 231
220 229 201 219 222 219 222 227 246 258 174 200 215 193 241 222 198 181 183 177 183 180 188 188 191 196 195 197 200 206 209 203 208 201 204 203 204 211 207 224 221 228 237 233
218 216 230 208 224 219 231 224 232 253 262 250 192 221 226 205 219 188 184 179 184 185 184 188 194 196 198 198 197 205 213 214 211 209 198 212 212 211 219 215 224 221 233 242
227 214 226 231 212 226 222 229 225 235 250 248 244 195 231 221 200 209 187 196 189 187 186 189 191 196 198 199 199 199 210 217 217 217 209 204 218 213 211 219 215 222 226 236
218 228 218 224 215 212 217 218 220 216 218 236 237 246 249 233 182 216 193 192 201 185 184 185 185 190 193 199 198 200 206 217 220 219 220 214 213 222 210 213 218 217 225 225
218 215 222 204 221 206 212 215 219 216 218 220 233 232 233 258 246 205 196 186 196 195 181 182 185 187 192 196 199 200 205 217 223 220 222 220 219 222 219 213 214 218 216 225
222 229 206 231 209 223 202 215 221 231 223 228 225 223 247 223 244 250 243 192 186 191 187 181 184 186 190 195 199 200 206 218 222 223 221 225 221 222 229 222 215 214 225 218
245 251 223 207 216 217 226 199 216 229 235 232 225 231 216 217 223 215 223 230 202 185 187 182 184 186 190 197 201 203 206 216 222 223 223 225 229 226 227 229 224 215 211 215
227 249 250 219 205 206 212 223 207 225 232 239 250 247 231 199 202 210 214 195 224 190 184 187 184 187 194 199 197 203 205 213 222 226 227 226 227 230 227 228 229 224 220 217
266 230 245 251 212 209 211 218 216 218 212 242 259 259 20 190 180 190 226 188 193 219 183 183 183 186 195 195 198 201 206 208 220 227 229 231 229 229 231 228 228 231 229 229
342 248 230 242 249 199 209 210 220 220 219 219 239 247 104 59 90 183 187 205 211 192 195 179 186 189 193 194 200 203 205 211 212 221 226 229 233 233 232 234 231 232 236 234
304 261 250 227 230 229 193 217 210 223 211 218 219 241 135 112 108 130 161 190 204 194 198 187 192 187 191 197 199 204 206 209 212 215 221 227 230 232 232 237 239 238 236 239
266 266 258 261 239 242 195 210 215 214 230 207 220 217 141 136 139 177 85 80 142 186 195 192 196 191 192 193 202 204 206 210 210 215 218 228 234 231 232 234 238 241 241 239
331 277 277 273 270 275 270 200 210 220 221 224 223 217 175 136 111 120 132 112 86 80 98 131 182 195 175 197 197 205 207 211 216 217 221 223 232 236 232 234 236 236 239 241
319 332 297 257 249 253 255 235 225 209 219 219 222 227 167 146 141 147 143 105 128 159 158 161 193 212 216 196 198 202 213 215 214 220 223 222 226 231 236 238 237 236 236 239
291 305 302 281 290 243 253 231 247 284 211 212 222 233 209 149 135 118 126 135 174 288 322 312 278 246 233 225 214 211 206 215 219 218 224 224 223 227 233 238 238 237 236 237
259 286 294 275 246 249 257 223 214 227 224 327 307 217 106 80 84 91 79 73 201 234 252 264 259 267 251 214 211 212 215 217 220 224 224 226 224 226 229 235 238 238 237 238
222 246 274 290 281 230 259 287 222 141 201 1 255 260 162 146 182 63 44 38 28 9 343 327 320 295 285 260 248 214 211 210 222 235 233 227 225 227 230 233 237 238 239 240
204 218 234 244 262 307 329 357 5 195 48 20 26 29 37 70 43 51 30 22 13 355 339 326 316 304 292 287 265 256 221 220 243 252 245 235 230 225 229 229 233 236 238 238
282 203 208 246 241 224 88 306 31 63 57 31 26 27 17 19 17 13 3 0 355 348 340 330 312 296 285 276 276 281 262 241 251 241 248 245 237 232 224 228 229 233 234 234
185 265 288 250 245 343 346 341 26 29 3 26 6 2 358 355 352 352 354 350 346 341 333 329 312 298 277 265 260 271 263 256 247 248 242 248 245 237 228 226 228 225 227 230
323 291 324 308 280 297 304 326 324 329 324 316 328 328 333 330 339 339 335 332 335 328 320 319 312 297 283 267 259 257 265 251 245 237 240 241 238 234 232 220 229 224 224 228
314 315 308 294 279 291 288 283 285 290 292 293 302 300 310 309 313 313 309 310 310 312 313 317 319 309 305 285 259 258 259 255 239 229 230 233 228 228 223 213 214 222 221 223
333 322 312 299 302 303 296 299 309 299 281 278 273 276 277 279 287 295 297 299 300 303 307 303 298 297 303 282 261 252 246 248 249 224 222 222 218 217 209 214 215 213 214 221